Weather History for KTIP - June, 2013

Change the Weather History Date:

Wednesday, June 12, 2013

  Actual Average (KCMI) Record (KCMI)
Temperature  
Mean Temperature 84 °F 71 °F  
Max Temperature 97 °F 83 °F 97 °F (2013)
Min Temperature 71 °F 60 °F 51 °F (2006)
Degree Days  
Heating Degree Days 0 1  
Month to date heating degree days 14  
Since 1 June heating degree days 14  
Since 1 July heating degree days 5820  
Cooling Degree Days 19 7  
Month to date cooling degree days 72  
Year to date cooling degree days 164  
Since 1 June cooling degree days 72  
Growing Degree Days 34 (Base 50)    
Moisture  
Dew Point 68 °F    
Average Humidity 58    
Maximum Humidity 86    
Minimum Humidity 31    
Precipitation  
Precipitation 0.00 in 0.14 in 1.82 in (2015)
Month to date precipitation 1.92  
Year to date precipitation 17.08  
Sea Level Pressure  
Sea Level Pressure 29.81 in    
Wind  
Wind Speed 9 mph (WSW)    
Max Wind Speed 22 mph    
Max Gust Speed 30 mph    
Visibility 10 miles    
Events      
T = Trace of Precipitation, MM = Missing Value Source: NWS Daily Summary

Daily Weather History Graph

Daily Weather History Graph

Search for Another Location

Airport or City:

Trip Planner

Search our weather history database for the weather conditions in past years. The results will help you decide how hot, cold, wet, or windy it might be!

Date:

Astronomy

Jun. 12, 2013 Rise Set
Actual Time 5:22 AM CDT 8:22 PM CDT
Civil Twilight 4:49 AM CDT 8:55 PM CDT
Nautical Twilight 4:07 AM CDT 9:37 PM CDT
Astronomical Twilight 3:18 AM CDT 10:26 PM CDT
Moon 9:01 AM CDT (6/12) 10:58 PM CDT (6/12)
Length of Visible Light 16h 06m
Length of Day
15h 00m
Waxing Crescent, 14% of the Moon is Illuminated
Jun 12
Waxing Crescent
Jun 16
First Quarter
Jun 23
Full
Jun 29
Last Quarter
Jul 8
New

Hourly Weather History & Observations

Time (CDT) Temp. Heat Index Dew Point Humidity Pressure Visibility Wind Dir Wind Speed Gust Speed Precip Events Conditions
12:15 AM 74.5 °F - 68.4 °F 81% 29.88 in 10.0 mi SW 4.6 mph - N/A   Clear
12:35 AM 75.4 °F - 67.5 °F 76% 29.88 in 10.0 mi SW 4.6 mph - N/A   Clear
1:55 AM 75.0 °F - 67.1 °F 76% 29.88 in 10.0 mi Calm Calm - N/A   Clear
2:35 AM 74.1 °F - 67.3 °F 79% 29.89 in 10.0 mi Calm Calm - N/A   Clear
2:55 AM 71.8 °F - 67.1 °F 85% 29.88 in 10.0 mi SW 4.6 mph - N/A   Clear
3:55 AM 75.4 °F - 68.9 °F 80% 29.89 in 10.0 mi West 5.8 mph - N/A   Clear
4:15 AM 74.8 °F - 68.9 °F 82% 29.89 in 10.0 mi WSW 6.9 mph - N/A   Clear
4:35 AM 74.8 °F - 68.9 °F 82% 29.89 in 10.0 mi WSW 6.9 mph - N/A   Clear
4:55 AM 74.5 °F - 68.9 °F 83% 29.90 in 10.0 mi WSW 5.8 mph - N/A   Clear
5:15 AM 73.9 °F - 68.9 °F 84% 29.90 in 10.0 mi WSW 5.8 mph - N/A   Clear
5:55 AM 72.9 °F - 68.4 °F 86% 29.90 in 10.0 mi Calm Calm - N/A   Clear
6:35 AM 75.4 °F - 69.4 °F 82% 29.90 in 10.0 mi SW 5.8 mph - N/A   Clear
6:55 AM 76.1 °F - 69.8 °F 81% 29.91 in 10.0 mi SW 8.1 mph - N/A   Clear
7:15 AM 77.2 °F - 70.7 °F 80% 29.91 in 10.0 mi WSW 6.9 mph - N/A   Clear
8:15 AM 80.6 °F 83.9 °F 69.8 °F 70% 29.92 in 10.0 mi West 6.9 mph - N/A   Clear
8:35 AM 81.0 °F 84.4 °F 69.8 °F 69% 29.92 in 10.0 mi West 6.9 mph - N/A   Clear
8:55 AM 82.0 °F 85.9 °F 70.2 °F 67% 29.92 in 10.0 mi West 6.9 mph - N/A   Clear
9:35 AM 84.4 °F 89.0 °F 70.3 °F 63% 29.91 in 10.0 mi WSW 6.9 mph 17.3 mph N/A   Clear
9:55 AM 86.4 °F 91.1 °F 70.2 °F 58% 29.91 in 10.0 mi West 10.4 mph - N/A   Clear
10:15 AM 87.3 °F 92.0 °F 70.0 °F 56% 29.90 in 10.0 mi WSW 9.2 mph - N/A   Clear
10:55 AM 88.0 °F 92.1 °F 69.1 °F 53% 29.90 in 10.0 mi West 9.2 mph 17.3 mph N/A   Clear
11:15 AM 90.3 °F 95.7 °F 70.2 °F 51% 29.89 in 10.0 mi WSW 10.4 mph - N/A   Clear
11:35 AM 88.9 °F 93.0 °F 68.9 °F 51% 29.87 in 10.0 mi SSW 4.6 mph - N/A   Clear
12:15 PM 88.3 °F 92.0 °F 68.2 °F 51% 29.81 in 10.0 mi South 13.8 mph - N/A   Clear
12:35 PM 89.6 °F 93.0 °F 67.6 °F 48% 29.80 in 10.0 mi South 12.7 mph 18.4 mph N/A   Clear
1:55 PM 92.7 °F 96.2 °F 67.1 °F 43% 29.78 in 10.0 mi SSW 15.0 mph 19.6 mph N/A   Clear
2:15 PM 92.5 °F 95.4 °F 66.6 °F 42% 29.78 in 10.0 mi SW 19.6 mph 24.2 mph N/A   Scattered Clouds
2:35 PM 92.8 °F 96.1 °F 66.4 °F 42% 29.78 in 10.0 mi SW 12.7 mph 21.9 mph N/A   Scattered Clouds
2:55 PM 94.3 °F 97.7 °F 66.4 °F 40% 29.78 in 10.0 mi SSW 20.7 mph 25.3 mph N/A   Clear
3:15 PM 94.8 °F 97.1 °F 64.9 °F 37% 29.77 in 10.0 mi SW 16.1 mph 25.3 mph N/A   Clear
3:55 PM 94.6 °F 96.8 °F 64.8 °F 37% 29.76 in 10.0 mi SSW 18.4 mph 24.2 mph N/A   Clear
4:15 PM 97.2 °F 98.1 °F 61.9 °F 31% 29.76 in 10.0 mi WSW 20.7 mph 26.5 mph N/A   Scattered Clouds
4:35 PM 96.1 °F 97.3 °F 62.4 °F 33% 29.75 in 10.0 mi SW 20.7 mph 29.9 mph N/A   Scattered Clouds
5:15 PM 95.4 °F 97.1 °F 64.0 °F 35% 29.71 in 10.0 mi SW 21.9 mph 29.9 mph N/A   Clear
5:55 PM 94.3 °F 95.8 °F 63.3 °F 36% 29.71 in 10.0 mi SW 21.9 mph 28.8 mph N/A   Scattered Clouds
6:15 PM 93.4 °F 95.2 °F 64.0 °F 38% 29.70 in 10.0 mi SW 18.4 mph 26.5 mph N/A   Scattered Clouds
6:35 PM 93.0 °F 95.5 °F 65.3 °F 40% 29.69 in 10.0 mi SW 21.9 mph 27.6 mph N/A   Scattered Clouds
8:35 PM 90.7 °F 94.1 °F 67.5 °F 46% 29.66 in 10.0 mi SW 19.6 mph 28.8 mph N/A   Scattered Clouds
8:55 PM 90.0 °F 93.6 °F 68.0 °F 48% 29.65 in 10.0 mi SW 19.6 mph 27.6 mph N/A   Clear
9:15 PM 89.6 °F 93.0 °F 67.8 °F 48% 29.66 in 10.0 mi WSW 18.4 mph 27.6 mph N/A   Clear
9:35 PM 89.6 °F 93.0 °F 67.5 °F 48% 29.66 in 10.0 mi WSW 17.3 mph 26.5 mph N/A   Clear
10:15 PM 88.2 °F 91.7 °F 68.0 °F 51% 29.66 in 10.0 mi WSW 15.0 mph - N/A   Scattered Clouds
10:35 PM 87.8 °F 91.1 °F 67.6 °F 51% 29.66 in 10.0 mi WSW 16.1 mph 23.0 mph N/A   Scattered Clouds
11:15 PM 86.9 °F 90.6 °F 68.4 °F 54% 29.66 in 10.0 mi WSW 12.7 mph 20.7 mph N/A   Clear
11:35 PM 86.0 °F 89.7 °F 68.5 °F 56% 29.67 in 10.0 mi West 13.8 mph 18.4 mph N/A   Clear
11:55 PM 85.1 °F 89.1 °F 69.1 °F 59% 29.68 in 10.0 mi West 10.4 mph - N/A   Clear